Ft. Stewart, GA

11:03 AM EST on December 16, 2017 (GMT -0500)
Wright Army Air Field

Weather History for KLHW - March, 2013

Change the Weather History Date:

Monday, March 18, 2013

  Actual Average Record
Temperature  
Mean Temperature 66 °F -  
Max Temperature 75 °F 72 °F 87 °F (1977)
Min Temperature 57 °F 46 °F 30 °F (1971)
Cooling Degree Days 1    
Growing Degree Days 16 (Base 50)    
Moisture  
Dew Point 59 °F    
Average Humidity 92    
Maximum Humidity 100    
Minimum Humidity 59    
Precipitation  
Precipitation 0.90 in - - ()
Sea Level Pressure  
Sea Level Pressure 30.00 in    
Wind  
Wind Speed 3 mph (NE)    
Max Wind Speed 25 mph    
Max Gust Speed 44 mph    
Visibility 8 miles    
Events Rain , Thunderstorm    
Averages and records for this station are not official NWS values.
T = Trace of Precipitation, MM = Missing Value Source: NWS Daily Summary

Daily Weather History Graph

Daily Weather History Graph

Search for Another Location

Airport or City:

Trip Planner

Search our weather history database for the weather conditions in past years. The results will help you decide how hot, cold, wet, or windy it might be!

Date:

Astronomy

Mar. 18, 2013 Rise Set
Actual Time 7:32 AM EDT 7:36 PM EDT
Civil Twilight 7:07 AM EDT 8:00 PM EDT
Nautical Twilight 6:39 AM EDT 8:29 PM EDT
Astronomical Twilight 6:11 AM EDT 8:57 PM EDT
Moon 11:50 AM EDT (3/18) 1:15 AM EDT (3/18)
Length of Visible Light 12h 53m
Length of Day
12h 04m
Waxing Crescent, 40% of the Moon is Illuminated
Mar 18
Waxing Crescent
Mar 19
First Quarter
Mar 27
Full
Apr 3
Last Quarter
Apr 10
New

Hourly Weather History & Observations

Time (EDT) Temp. Dew Point Humidity Pressure Visibility Wind Dir Wind Speed Gust Speed Precip Events Conditions
12:02 AM 62.6 °F 53.6 °F 72% 30.04 in 10.0 mi SE 2.3 mph - N/A Rain Light Rain
12:35 AM 59.0 °F 57.2 °F 94% 30.04 in 10.0 mi Calm Calm - N/A   Overcast
12:58 AM 59.7 °F 57.9 °F 94% 30.04 in 10.0 mi NNW 2.3 mph - 0.00 in   Overcast
1:34 AM 60.8 °F 57.2 °F 88% 30.02 in 10.0 mi East 1.2 mph - N/A Rain Light Rain
1:46 AM 60.8 °F 57.2 °F 88% 30.02 in 10.0 mi Calm Calm - N/A   Overcast
1:58 AM 59.5 °F 58.5 °F 96% 30.03 in 10.0 mi Calm Calm - 0.00 in   Overcast
2:35 AM 59.0 °F 59.0 °F 100% 30.02 in 10.0 mi Calm Calm - N/A Rain Light Rain
2:58 AM 59.2 °F 58.6 °F 98% 30.03 in 10.0 mi Calm Calm - 0.00 in Rain Light Rain
3:29 AM 59.0 °F 59.0 °F 100% 30.01 in 10.0 mi Calm Calm - N/A   Overcast
3:35 AM 59.0 °F 59.0 °F 100% 30.01 in 10.0 mi Calm Calm - N/A Rain Light Rain
3:55 AM 59.0 °F 59.0 °F 100% 30.01 in 9.0 mi Calm Calm - N/A Rain Light Rain
3:58 AM 58.3 °F 58.3 °F 100% 30.02 in 10.0 mi Calm Calm - 0.03 in Rain Light Rain
3:59 AM 59.0 °F 59.0 °F 100% 30.01 in 10.0 mi East 1.2 mph - N/A   Overcast
4:19 AM 59.0 °F 59.0 °F 100% 30.01 in 9.0 mi Calm Calm - N/A   Overcast
4:29 AM 59.0 °F 59.0 °F 100% 30.00 in 10.0 mi Calm Calm - N/A   Overcast
4:40 AM 59.0 °F 59.0 °F 100% 30.01 in 10.0 mi Calm Calm - N/A Rain Light Rain
4:49 AM 59.0 °F 59.0 °F 100% 30.00 in 9.0 mi Calm Calm - N/A   Mostly Cloudy
4:51 AM 59.0 °F 59.0 °F 100% 30.00 in 10.0 mi Calm Calm - N/A Rain Light Rain
4:58 AM 58.3 °F 58.3 °F 100% 30.01 in 8.0 mi Calm Calm - 0.00 in Rain Light Rain
5:18 AM 59.0 °F 59.0 °F 100% 30.02 in 5.0 mi WSW 2.3 mph - N/A Rain Light Rain
5:38 AM 59.0 °F 59.0 °F 100% 30.02 in 4.0 mi NW 3.5 mph - N/A Rain Rain
5:43 AM 59.0 °F 59.0 °F 100% 30.02 in 5.0 mi WNW 2.3 mph - N/A Rain Rain
5:48 AM 59.0 °F 59.0 °F 100% 30.03 in 7.0 mi West 2.3 mph - N/A Rain Rain
5:58 AM 58.1 °F 58.1 °F 100% 30.03 in 5.0 mi Calm Calm - 0.10 in Rain Rain
6:14 AM 59.0 °F 59.0 °F 100% 30.03 in 6.0 mi Calm Calm - N/A Rain Rain
6:24 AM 59.0 °F 59.0 °F 100% 30.04 in 5.0 mi NW 1.2 mph - N/A Rain Heavy Rain
6:54 AM 57.2 °F 57.2 °F 100% 30.04 in 5.0 mi NE 4.6 mph - N/A Rain Light Rain
6:58 AM 58.1 °F 58.1 °F 100% 30.05 in 6.0 mi NE 3.5 mph - 0.13 in Rain Light Rain
7:23 AM 57.2 °F 57.2 °F 100% 30.05 in 8.0 mi NNE 2.3 mph - N/A Rain Light Rain
7:32 AM 57.2 °F 57.2 °F 100% 30.05 in 8.0 mi East 4.6 mph - N/A   Overcast
7:35 AM 57.2 °F 57.2 °F 100% 30.05 in 7.0 mi East 4.6 mph - N/A   Light Drizzle
7:55 AM 59.0 °F 59.0 °F 100% 30.06 in 5.0 mi NNE 2.3 mph - N/A Rain Light Rain
7:58 AM 58.1 °F 58.1 °F 100% 30.06 in 5.0 mi NE 2.3 mph - 0.02 in Rain Light Rain
8:26 AM 59.0 °F 59.0 °F 100% 30.05 in 6.0 mi ENE 2.3 mph - N/A   Overcast
8:58 AM 58.5 °F 58.5 °F 100% 30.06 in 10.0 mi ENE 3.5 mph - 0.01 in   Overcast
9:58 AM 59.7 °F 59.7 °F 100% 30.06 in 10.0 mi East 4.6 mph - N/A   Overcast
10:58 AM 60.4 °F 60.4 °F 100% 30.06 in 10.0 mi ESE 4.6 mph - N/A   Overcast
11:00 AM 60.8 °F 60.8 °F 100% 30.05 in 10.0 mi ESE 4.6 mph - N/A Rain Light Rain
11:07 AM 60.8 °F 60.8 °F 100% 30.05 in 10.0 mi ESE 4.6 mph - N/A   Overcast
11:58 AM 63.9 °F 59.7 °F 86% 30.05 in 10.0 mi ESE 4.6 mph - 0.00 in   Overcast
12:58 PM 67.5 °F 60.3 °F 78% 30.02 in 10.0 mi SE 5.8 mph - N/A   Mostly Cloudy
1:38 PM 69.8 °F 60.8 °F 73% 29.99 in 10.0 mi SE 5.8 mph - N/A   Overcast
1:43 PM 69.8 °F 60.8 °F 73% 29.99 in 10.0 mi Variable 4.6 mph - N/A   Overcast
1:58 PM 70.5 °F 60.4 °F 70% 29.98 in 10.0 mi SSE 6.9 mph - N/A   Overcast
2:58 PM 72.1 °F 59.5 °F 64% 29.94 in 10.0 mi SE 6.9 mph - N/A   Overcast
3:58 PM 72.7 °F 60.1 °F 64% 29.92 in 10.0 mi SE 6.9 mph - N/A   Overcast
4:58 PM 75.6 °F 60.4 °F 59% 29.90 in 10.0 mi WSW 4.6 mph - N/A   Scattered Clouds
5:58 PM 73.9 °F 62.2 °F 67% 29.87 in 10.0 mi ESE 9.2 mph - N/A   Scattered Clouds
6:58 PM 71.1 °F 61.9 °F 73% 29.87 in 10.0 mi ESE 9.2 mph - N/A   Scattered Clouds
7:58 PM 67.6 °F 61.3 °F 80% 29.85 in 10.0 mi ESE 8.1 mph - N/A   Scattered Clouds
8:58 PM 65.7 °F 61.2 °F 85% 29.87 in 10.0 mi SE 4.6 mph - N/A   Mostly Cloudy
9:58 PM 64.9 °F 61.2 °F 88% 29.89 in 10.0 mi Variable 1.2 mph - N/A   Partly Cloudy
10:28 PM 64.4 °F 60.8 °F 88% 29.96 in 10.0 mi NW 25.3 mph 32.2 mph N/A   Mostly Cloudy
10:29 PM 64.4 °F 59.0 °F 83% 29.97 in 10.0 mi NW 25.3 mph 32.2 mph N/A Rain , Thunderstorm Light Rain
10:39 PM 62.6 °F 57.2 °F 82% 29.99 in 7.0 mi NNW 16.1 mph 43.7 mph N/A Rain , Thunderstorm Heavy Thunderstorms and Rain
10:44 PM 60.8 °F 57.2 °F 88% 29.98 in 3.0 mi NNW 13.8 mph 31.1 mph N/A Rain , Thunderstorm Heavy Thunderstorms and Rain
10:49 PM 59.0 °F 57.2 °F 94% 29.98 in 2.0 mi NNW 12.7 mph 24.2 mph N/A Rain , Thunderstorm Heavy Thunderstorms and Rain
10:54 PM 59.0 °F 57.2 °F 94% 29.99 in 3.0 mi NW 8.1 mph 24.2 mph N/A Rain , Thunderstorm Heavy Thunderstorms and Rain
10:58 PM 58.3 °F 57.6 °F 97% 30.00 in 4.0 mi NNW 9.2 mph - 0.47 in Rain , Thunderstorm Heavy Thunderstorms and Rain
11:01 PM 57.2 °F 57.2 °F 100% 29.99 in 4.0 mi NNW 9.2 mph - N/A Rain Heavy Rain
11:11 PM 57.2 °F 57.2 °F 100% 30.00 in 6.0 mi Variable 3.5 mph - N/A Rain Rain
11:41 PM 57.2 °F 57.2 °F 100% 29.98 in 9.0 mi NNW 2.3 mph - N/A Rain Rain
11:51 PM 57.2 °F 57.2 °F 100% 29.98 in 10.0 mi NNW 1.2 mph - N/A Rain Light Rain
11:58 PM 57.6 °F 57.6 °F 100% 29.98 in 10.0 mi NW 2.3 mph - 0.14 in Rain Light Rain